This is the latest recevied weather packets stored in our database for station/object N6WDO. If no packets are shown the sender has not sent any weather packets the latest 10 day(s).
| Time | Temp. | Humidity | Pressure | Rain* | Wind** | Luminosity | Snow |
|---|---|---|---|---|---|---|---|
| 1777501815 | 24.44° C | 31% | 1017.1 hPa | 0 mm | - | 562 W/m² | - |
| 1777501512 | 23.89° C | 36% | 1017.6 hPa | 0 mm | - | 571 W/m² | - |
| 1777501209 | 24.44° C | 30% | 1017.6 hPa | 0 mm | - | 581 W/m² | - |
| 1777500907 | 23.89° C | 33% | 1017.8 hPa | 0 mm | - | 590 W/m² | - |
| 1777500603 | 24.44° C | 36% | 1017.7 hPa | 0 mm | - | 602 W/m² | - |
| 1777500300 | 24.44° C | 35% | 1017.7 hPa | 0 mm | - | 613 W/m² | - |
| 1777499997 | 23.89° C | 35% | 1018 hPa | 0 mm | - | 622 W/m² | - |
| 1777499693 | 23.89° C | 34% | 1017.8 hPa | 0 mm | - | 630 W/m² | - |
| 1777499390 | 23.89° C | 36% | 1017.7 hPa | 0 mm | - | 637 W/m² | - |
| 1777499089 | 23.89° C | 34% | 1018.2 hPa | 0 mm | - | 647 W/m² | - |
| 1777498784 | 23.33° C | 36% | 1018 hPa | 0 mm | - | 655 W/m² | - |
| 1777498481 | 23.89° C | 37% | 1018 hPa | 0 mm | - | 662 W/m² | - |
| 1777498177 | 22.78° C | 43% | 1018 hPa | 0 mm | - | 667 W/m² | - |
| 1777497875 | 22.22° C | 38% | 1018.2 hPa | 0 mm | - | 674 W/m² | - |
| 1777497571 | 22.78° C | 40% | 1018.4 hPa | 0 mm | - | 682 W/m² | - |
| 1777497267 | 22.78° C | 42% | 1018.3 hPa | 0 mm | - | 686 W/m² | - |
| 1777496964 | 23.33° C | 39% | 1018.3 hPa | 0 mm | - | 692 W/m² | - |
| 1777496662 | 22.78° C | 40% | 1018.3 hPa | 0 mm | - | 695 W/m² | - |
| 1777496357 | 22.78° C | 41% | 1018.6 hPa | 0 mm | - | 707 W/m² | - |
| 1777496054 | 22.78° C | 44% | 1018.5 hPa | 0 mm | - | 708 W/m² | - |
| 1777495750 | 23.33° C | 43% | 1018.4 hPa | 0 mm | - | 712 W/m² | - |
| 1777495446 | 23.33° C | 46% | 1018.4 hPa | 0 mm | - | 712 W/m² | - |
| 1777495142 | 23.33° C | 43% | 1018.7 hPa | 0 mm | - | 715 W/m² | - |
| 1777494840 | 22.78° C | 43% | 1018.7 hPa | 0 mm | - | 722 W/m² | - |
| 1777494537 | 22.78° C | 46% | 1018.7 hPa | 0 mm | - | 724 W/m² | - |
* Rain latest hour (hover to see other rain measurements)
** Current wind speed in m/s (hover to see current wind gust speed)